map of TWU home
Great Circle Mapper logo
TWU - Airport
Location
City:  Tawau, Sabah, Borneo, Malaysia
ICAO / IATA:WBKW / TWU

Details
Type:Airport (Aerodrome, Airfield)
Use:Public/Civil
Latitude:418'48"N (4.313369)
Longitude:11807'19"E (118.121953)
Datum:WGS 1984
Elevation:57 ft (17 m)
Variation:0.2E (WMM2010 magnetic declination)
Runways:1
Longest:8800 × 155 ft (2682 × 47 m), paved

Time
Time Zone:UTC+8
Local Time:

Weather
METAR:WBKW 240700Z 17006KT 9999 FEW016CB BKN300 32/27 Q1006
TAF:WBKW 240500Z 2406/2506 16005KT 9999 FEW017 SCT140 BKN300

Related Locations
Nearby:
Farthest:CIZ: 12362 mi / 19895 km
Coari, AM, BR

Find:

   beyond  
but within

Other Information
Maps:
NOTAMs:
Links:
Sources:

  
flag of Malaysia   

Sectional Chart

Flight Planning
at skyvector.com

Satellite Image

Google Maps Satellite View

 

Copyright © 2004-2014 Karl L. Swartz. All rights reserved.
The Great Circle Mapper name and logo are trademarks of the Great Circle Mapper.
All other trademarks mentioned herein belong to their respective owners.
Please see credits for attibutions and further copyright information.

  Follow gcmap on Facebook Follow gcmap on Twitter

hCard Microformat

Geo Microformat